Location: Cazarilh
(42.9578°N, 0.5819°E)
Time: 09:40:15
(UTC+00:00)

Meteor 1-18 Rocket - Pass Details

Date: 11 December 2019
Orbit: 837 x 909 km, 81.2° (Epoch: 27 January)

Event Time Altitude Azimuth Distance (km) Brightness Sun altitude
Exits shadow 05:02:15 - 355° (N) 2,639 6.6 -24.0°
Reaches altitude 10° 05:02:43 10° 355° (N) 2,460 6.5 -23.9°
Maximum altitude 05:08:15 66° 78° (ENE) 916 4.5 -23.0°
Drops below altitude 10° 05:13:46 10° 161° (SSE) 2,458 7.0 -22.0°
Sets 05:16:12 0° 164° (SSE) 3,397 7.7 -21.5°
